Regional Weather Roundup
Issued by NWS

Home | Current Version | Previous Version | Graphics & Text | Print | Product List | Glossary On
Versions: 1 2 3 4 5 6 7 8 9 10 11 12 13 14 15 16 17 18 19 20 21 22 23 24 25 26 27 28 29 30 31 32 33 34 35 36 37 38 39 40 41 42 43 44 45 46 47 48 49 50
000
ASUS43 KFSD 270502
RWRSD

WEATHER ROUNDUP FOR SOUTH DAKOTA
NATIONAL WEATHER SERVICE SIOUX FALLS SD
1200 AM CDT SAT AUG 27 2016

NOTE: "FAIR" INDICATES FEW OR NO CLOUDS BELOW 12,000 FEET WITH NO
SIGNIFICANT WEATHER AND/OR OBSTRUCTIONS TO VISIBILITY.


SDZ001>005-009-010-012>017-270600-
NORTHWEST AND NORTH CENTRAL SOUTH DAKOTA

CITY           SKY/WX    TMP DP  RH WIND       PRES   REMARKS
BUFFALO          N/A     56  50  80 S7        29.95F
FAITH            N/A     55  55 100 S10       30.01F
MOBRIDGE       CLOUDY    59  54  83 SE10      30.00S
$$

SDZ012>016-024>037-041>051-057-063-072>074-270600-
SOUTHWEST AND SOUTH CENTRAL SOUTH DAKOTA

CITY           SKY/WX    TMP DP  RH WIND       PRES   REMARKS
RAPID CTY ARPT CLOUDY    58  56  93 CALM      30.04F
PIERRE         PTCLDY    58  54  86 SE9       30.00F
CUSTER         CLOUDY    53  46  77 S3        30.12R
ELLSWORTH AFB  CLOUDY    58  58 100 S7        30.03
PHILIP         MOCLDY    61  32  33 S15G24    30.00R
PINE RIDGE     CLOUDY    60  56  86 S7        30.08R
WINNER         FAIR      58  56  93 SW3       30.06R
$$

SDZ004>011-016>023-039-040-270600-
NORTHEAST SOUTH DAKOTA

CITY           SKY/WX    TMP DP  RH WIND       PRES   REMARKS
ABERDEEN       CLOUDY    59  56  89 CALM      30.03F
WATERTOWN      CLOUDY    63  55  75 SE10      30.07F
BROOKINGS      LGT RAIN  63  58  83 E8        30.08F
$$

SDZ017-020-022-023-036>040-048>070-270600-
SOUTHEAST SOUTH DAKOTA

CITY           SKY/WX    TMP DP  RH WIND       PRES   REMARKS
SIOUX FALLS    CLOUDY    66  60  81 SE13      30.08S
HURON          PTCLDY    63  58  83 SE8       30.04F
CHAMBERLAIN    CLOUDY    60  58  91 SE7       30.05F
MITCHELL       LGT RAIN  66  60  81 SE17      30.05F
YANKTON        MOCLDY    64  59  82 SE14      30.05R
$$

ABBREVIATIONS USED IN REMARKS
   TC - TEMPERATURE IN CELSIUS
  WCI - WIND CHILL INDEX
   HX - HEAT INDEX
  VSB - VISIBILITY





USA.gov is the U.S. government's official web portal to all federal, state and local government web resources and services.